Home > Weather > Elizabeth > Past weeks

Flag for USA Past Weather in Elizabeth, New Jersey, USA — Yesterday and Last 2 Weeks

Now
76 °F

Passing clouds.


Feels Like: 77 °F
Forecast: 72 / 90 °F
Wind: 7 mph from South

Location: Newark International Airport

Current Time: Aug 28, 2016 at 11:55:04 PM

Latest Report: Aug 28, 2016 at 10:51 PM


Visibility: 10 mi

Pressure: 30.16 "Hg

Humidity: 72%

Dew Point: 66 °F

Location of ElizabethLocation

Past Weather in Elizabeth — Graph

°F

Elizabeth Temperature Yesterday

Maximum temperature yesterday: 88 °F (at 12:51 PM)
Minimum temperature yesterday: 71 °F (at 5:51 AM)
Average temperature yesterday: 79 °F

High & Low Weather Summary for the Past Weeks

 TemperatureHumidityPressure
High96 °F (Aug 14, 1:51 PM)91% (Aug 17, 1:51 AM)30.32 "Hg (Aug 17, 1:51 AM)
Low61 °F (Aug 23, 6:51 AM)30% (Aug 23, 3:51 PM)29.76 "Hg (Aug 21, 4:51 PM)
Average80 °F62%30.04 "Hg
* Reported Aug 13 9:51 PM — Aug 28 9:51 PM, Elizabeth, Weather by CustomWeather, © 2016

Note: Actual official high and low records may vary slightly from our data, if they occured in-between our weather recording intervals... More about our weather records

Advertising

Elizabeth Weather History for the Previous 24 Hours

Scroll right to see more
 ConditionsComfort  
Time TempWeatherWind HumidityBarometerVisibility
9:51 PM
Sun, Aug 28
76 °FPassing clouds.7 mph72%30.16 "Hg10 mi
8:51 PM77 °FPassing clouds.6 mph69%30.15 "Hg10 mi
7:51 PM78 °FPassing clouds.10 mph66%30.14 "Hg10 mi
6:51 PM80 °FScattered clouds.12 mph62%30.15 "Hg10 mi
5:51 PM81 °FPassing clouds.13 mph53%30.16 "Hg10 mi
4:51 PM84 °FPassing clouds.13 mph45%30.17 "Hg10 mi
3:51 PM85 °FScattered clouds.9 mph43%30.19 "Hg10 mi
2:51 PM85 °FScattered clouds.13 mph50%30.20 "Hg10 mi
1:51 PM85 °FScattered clouds.10 mph50%30.22 "Hg10 mi
12:51 PM85 °FBroken clouds.7 mph48%30.23 "Hg10 mi
11:51 AM84 °FScattered clouds.7 mph49%30.25 "Hg10 mi
10:51 AM82 °FScattered clouds.No wind55%30.26 "Hg10 mi
9:51 AM80 °FPassing clouds.5 mph62%30.27 "Hg10 mi
8:51 AM78 °FPassing clouds.3 mph74%30.27 "Hg10 mi
7:51 AM75 °FPassing clouds.5 mph79%30.26 "Hg10 mi
6:51 AM73 °FPassing clouds.3 mph90%30.25 "Hg10 mi
5:51 AM74 °FPassing clouds.No wind88%30.24 "Hg10 mi
4:51 AM74 °FPassing clouds.3 mph88%30.22 "Hg10 mi
3:51 AM72 °FPassing clouds.No wind91%30.21 "Hg10 mi
2:51 AM74 °FPassing clouds.3 mph85%30.20 "Hg10 mi
1:51 AM74 °FPassing clouds.No wind74%30.21 "Hg10 mi
12:51 AM75 °FPassing clouds.3 mph71%30.22 "Hg10 mi
11:51 PM
Sat, Aug 27
75 °FPassing clouds.No wind71%30.22 "Hg10 mi
Weather by CustomWeather, © 2016

See weather overviewHow to use our weather pages